Location: Rockford
(42.2710°N, 89.0940°W)
Time: 18:12:33
(UTC-06:00)

SPOT 5 - Visible Passes

Search period start: 22 February 2017 00:00
Search period end: 04 March 2017 00:00
Orbit: 624 x 815 km, 98.4° (Epoch: 22 February)

Date Brightness Start Highest point End Pass type
(mag) Time Alt. Az. Time Alt. Az. Time Alt. Az.
22 Feb 5.4 20:20:11 11° N 20:20:11 11° N 20:20:25 10° N visible
23 Feb 5.7 21:08:40 11° NNW 21:08:40 11° NNW 21:08:52 10° NNW visible
24 Feb 5.3 20:17:55 13° N 20:17:55 13° N 20:18:30 10° N visible
25 Feb 5.6 21:06:25 13° NNW 21:06:25 13° NNW 21:06:59 10° NNW visible
26 Feb 5.2 20:15:41 14° NNE 20:15:41 14° NNE 20:16:34 10° N visible
27 Feb 5.4 21:04:10 15° NNW 21:04:10 15° NNW 21:05:06 10° NNW visible
28 Feb 5.0 20:13:26 16° NNE 20:13:26 16° NNE 20:14:39 10° N visible
28 Feb 6.0 21:52:40 10° NNW 21:52:40 10° NNW 21:52:46 10° NNW visible
01 Mar 5.2 21:01:56 18° NNW 21:01:56 18° NNW 21:03:13 10° NNW visible
02 Mar 4.9 20:11:12 18° NNE 20:11:12 18° NNE 20:12:44 10° N visible
02 Mar 5.9 21:50:26 12° NNW 21:50:26 12° NNW 21:50:55 10° NNW visible
03 Mar 5.1 20:59:42 20° N 20:59:42 20° N 21:01:19 10° N visible
